Zurück zum Katalog

COSMOS 1818 COOLANT

LostLEO
NORAD 36942·DEBRIS·🇷🇺 Russia

Gestartet Feb 1, 1987 von Baikonur Cosmodrome

Loading…

Nächste Überflüge (nächste 24 Stunden)

TLE

VeraltetSource: Space-Track

Epoche: Aug 28, 2022, 02:09 UTC

1 36942U 87011W   22240.09009265  .00000222  00000-0  11313-3 0  9990
2 36942  65.0067 127.8290 0014087 247.3992 112.5604 14.34981633653381

Verfolge COSMOS 1818 COOLANT in Echtzeit mit AllMySat

Download on the App Store